sat.trackr.live / text

‹ back to catalog

STARLINK-36517

NORAD 67454 · 2026-008K

PAYLOAD ACTIVE UNKNOWN

§ Identity

Operator
Country
US
Launch date
2026-01-14
Launch site
AFETR
Launch vehicle
Mass (kg)
RCS (m²)

Purposes: comms

External: N2YO · Heavens-Above · Gunter

§ Orbital elements

Epoch: 2026-05-25T00:33:37.744992Z

Period
94.27 min
Inclination
42.9988°
Eccentricity
0.0000951
Mean motion
15.27593992 rev/d
Perigee alt
482.4 km
Apogee alt
483.7 km
Semi-major
6,861.1 km
B*
6.6556e-4
RAAN
134.3868°
Arg perigee
237.3138°
Mean anomaly
122.7622°
Rev number
2,124

§ Raw data

STARLINK-365171 67454U 26008K   26145.02335353  .00018105  00000+0  66556-3 0  99992 67454  42.9988 134.3868 0000951 237.3138 122.7622 15.27593992 21246

JSON: /api/v1/satellites/67454 · /tle

For live sub-satellite position, see the globe view (requires WebGL).

§ Visibility from observer

Set your observer location to see the next 7 days of passes ≥ 10°. The values pass through the URL so the page stays shareable.

No JS? Fill the form by hand. The geolocation button needs JavaScript.